Location: Newark
(45.9456°N, 15.4064°E)
Time: 20:52:04
(UTC+00:00)

Vanguard 3 - Pass Details

Date: 25 January 2020
Orbit: 508 x 3263 km, 33.3° (Epoch: 22 February)

Event Time Altitude Azimuth Distance (km) Brightness Sun altitude
Rises 15:51:55 0° 226° (SW) 6,881 13.7 -0.7°
Reaches altitude 10° 15:56:41 10° 220° (SW) 6,048 12.9 -1.4°
Maximum altitude 16:14:19 43° 158° (SSE) 4,006 10.7 -4.2°
Drops below altitude 10° 16:29:31 10° 95° (E) 5,282 10.7 -6.7°
Enters shadow 16:31:53 - 91° (E) 5,706 10.9 -7.1°
Sets 16:33:18 0° 89° (E) 5,979 - -7.3°
